Probability
26 16 6 0 0 0 0 0 0 0 0 0 0 0 0 0 0 0 0 0 6 10 23 39 42 45 48 45 48 45 52 58 52 48 48 42 39 39 42 48 48 52 45 48 48 52 61 58 58
23 16 0 0 0 0 0 0 0 0 0 0 0 0 0 0 0 0 0 6 6 19 23 29 39 39 48 45 48 48 39 42 35 32 32 39 32 32 26 29 32 26 26 29 29 39 42 39 48
19 6 0 0 0 0 0 0 0 0 0 0 0 0 0 0 0 0 0 3 10 19 19 26 42 39 42 45 39 35 32 29 29 16 16 23 23 19 19 19 19 16 16 13 19 16 19 29 35
3 3 0 0 0 0 0 0 0 0 0 0 0 0 0 0 0 0 0 0 0 13 16 32 42 39 39 29 23 26 23 26 26 13 16 19 19 19 19 19 13 10 10 13 10 13 16 23 29
0 0 0 0 0 0 0 0 0 0 0 0 0 0 0 0 0 0 0 0 0 6 16 23 35 29 23 23 23 13 16 23 19 16 13 16 13 10 10 10 10 10 10 10 13 16 16 16 19
0 0 0 0 0 0 0 0 0 0 0 0 0 0 0 0 0 3 0 0 3 6 10 10 23 16 19 16 13 10 10 10 10 10 6 10 13 10 6 10 10 10 13 13 10 10 16 19 23
0 0 0 0 0 0 0 0 0 0 0 0 0 0 0 0 0 0 3 0 0 3 10 6 6 10 10 10 10 13 10 13 13 10 10 6 10 10 10 6 10 10 13 13 13 16 16 26 23
0 0 0 0 0 0 0 0 0 0 0 0 0 0 0 0 0 0 0 0 0 0 0 3 3 3 6 6 6 13 10 13 10 10 10 16 10 10 13 6 6 10 10 6 10 13 19 26 26
0 0 0 0 0 0 0 0 0 0 0 0 0 0 0 0 0 0 0 0 0 0 0 0 0 0 0 0 0 0 0 3 3 3 3 3 0 0 0 3 10 6 3 3 10 10 13 13 19
0 0 0 0 0 0 0 0 0 0 0 0 0 0 0 0 0 0 0 0 0 0 0 0 0 0 0 0 0 0 0 0 0 0 0 0 0 0 0 0 0 0 0 0 3 0 0 0 0
0 0 0 0 0 0 0 0 0 0 0 0 0 0 0 0 0 0 0 0 0 0 0 0 0 0 0 0 0 0 0 0 0 0 0 0 0 0 0 0 0 0 0 0 0 0 0 0 0
0 0 0 0 0 0 0 0 0 0 0 0 0 0 0 0 0 0 0 0 0 0 0 0 0 0 0 0 0 0 0 0 0 0 0 0 0 0 0 0 0 0 0 0 0 0 0 0 0
0 0 0 0 0 0 0 0 0 0 0 0 0 0 0 0 0 0 0 0 0 0 0 0 0 0 0 0 0 0 0 0 0 0 0 0 0 0 0 0 0 0 0 0 0 0 0 0 0
0 0 0 0 0 0 0 0 0 0 0 0 0 0 0 0 0 0 0 0 0 0 0 0 0 0 0 0 0 0 0 0 0 0 0 0 0 0 0 0 0 0 0 0 0 0 0 0 0
0 0 0 0 0 0 0 0 0 0 0 0 0 0 0 0 0 0 0 0 0 0 0 0 0 0 0 0 0 0 0 0 0 0 0 0 0 0 0 0 0 0 0 0 0 0 0 0 0
0 0 0 0 0 0 0 0 0 0 0 0 0 0 0 0 0 0 0 0 0 0 0 0 0 0 0 0 0 0 0 0 0 0 0 0 0 0 0 0 0 0 0 0 0 0 0 0 0
0 0 0 0 0 0 0 0 0 0 0 0 0 0 0 0 0 0 0 0 0 0 0 0 0 0 0 0 0 0 0 0 0 0 0 0 0 0 0 0 0 0 0 0 0 0 0 0 0
0 0 0 0 0 0 0 0 0 0 0 0 0 0 0 0 0 0 0 0 0 0 0 0 0 0 0 0 0 0 0 0 0 0 0 0 0 0 0 0 0 0 0 0 0 0 0 0 0
0 0 0 0 0 0 0 0 0 0 0 0 0 0 0 0 0 0 0 0 0 0 0 0 0 0 0 0 0 0 0 0 0 0 0 0 0 0 0 0 0 0 0 0 0 0 0 0 0
0 0 0 0 0 0 0 0 0 0 0 0 0 0 0 0 0 0 0 0 0 0 0 0 0 0 0 0 0 0 0 0 0 0 0 0 0 0 0 0 0 0 0 0 0 0 0 0 0
0 0 0 0 0 0 0 0 0 0 0 0 0 0 0 0 0 0 0 0 0 0 0 0 0 0 0 0 0 0 0 0 0 0 0 0 0 0 0 0 0 0 0 0 0 0 0 0 0
0 0 0 0 0 0 0 0 0 0 0 0 0 0 0 0 0 0 0 0 0 0 0 0 0 0 0 0 0 0 0 0 0 0 0 0 0 0 0 0 0 0 0 0 0 0 0 0 0
0 0 0 0 0 0 0 0 0 0 0 0 0 0 0 0 0 0 0 0 0 0 0 0 0 0 0 0 0 0 0 0 0 0 0 0 0 0 0 0 0 0 0 0 0 0 0 0 0
0 0 0 0 0 0 0 0 0 0 0 0 0 0 0 0 0 0 0 0 0 0 0 0 0 0 0 0 0 0 0 0 0 0 0 0 0 0 0 0 0 0 0 0 0 0 0 0 0
0 0 0 0 0 0 0 0 0 0 0 0 0 0 0 0 0 0 0 0 0 0 0 0 0 0 0 0 0 0 0 0 0 0 0 0 0 0 0 0 0 0 0 0 0 0 0 0 0
0 0 0 0 0 0 0 0 0 0 0 0 0 0 0 0 0 0 0 0 0 0 0 0 0 0 0 0 0 0 0 0 0 0 0 0 0 0 0 0 0 0 0 0 0 0 0 0 0
0 0 0 0 0 0 0 0 0 0 0 0 0 0 0 0 0 0 0 0 0 0 0 0 0 0 0 0 0 0 0 0 0 0 0 0 0 0 0 0 0 0 0 0 0 0 0 0 0
0 0 0 0 0 0 0 0 0 0 0 0 0 0 0 0 0 0 0 0 0 0 0 0 0 0 0 0 0 0 0 0 0 0 0 0 0 0 0 0 0 0 0 0 0 0 0 0 0
0 0 0 0 0 0 0 0 0 0 0 0 0 0 0 0 0 0 0 0 0 0 0 0 0 0 0 0 0 0 0 0 0 0 0 0 0 0 0 0 0 0 0 0 0 0 0 0 0
0 0 0 0 0 0 0 0 0 0 0 0 0 0 0 0 0 0 0 0 0 0 0 0 0 0 0 0 0 0 0 0 0 0 0 0 0 0 0 0 0 0 0 0 0 0 0 0 0
Height
5881 5881 5882 5883 5883 5883 5882 5882 5882 5882 5882 5882 5883 5883 5883 5883 5884 5886 5884 5883 5883 5883 5883 5883 5883 5883 5883 5883 5883 5883 5883 5883 5883 5883 5883 5883 5883 5882 5882 5882 5882 5882 5882 5882 5882 5882 5883 5883 5883
5881 5881 5882 5883 5882 5882 5882 5882 5882 5882 5882 5882 5882 5882 5882 5882 5883 5883 5882 5882 5882 5882 5882 5883 5883 5882 5882 5882 5882 5882 5882 5882 5882 5882 5882 5882 5882 5881 5881 5881 5881 5881 5881 5881 5881 5881 5881 5881 5881
5880 5881 5882 5882 5881 5882 5882 5881 5881 5881 5881 5881 5881 5882 5882 5882 5882 5881 5881 5881 5881 5881 5882 5882 5882 5881 5881 5881 5882 5881 5881 5881 5881 5881 5881 5881 5880 5880 5880 5880 5879 5879 5879 5879 5879 5879 5879 5879 5879
5880 5881 5881 5881 5881 5881 5881 5881 5880 5880 5880 5880 5880 5881 5881 5881 5881 5881 5880 5881 5881 5881 5881 5881 5881 5880 5880 5881 5881 5881 5881 5880 5880 5880 5880 5879 5879 5879 5878 5878 5878 5878 5878 5877 5877 5877 5877 5877 5877
5878 5879 5880 5879 5879 5880 5880 5879 5880 5880 5879 5879 5880 5880 5880 5880 5879 5879 5879 5880 5880 5880 5880 5880 5879 5879 5879 5880 5880 5880 5880 5879 5879 5879 5878 5878 5878 5877 5877 5877 5877 5876 5876 5876 5875 5875 5876 5876 5875
5878 5878 5878 5878 5878 5878 5879 5878 5879 5879 5879 5878 5879 5879 5879 5879 5878 5878 5878 5879 5879 5879 5879 5879 5878 5878 5878 5878 5879 5879 5878 5878 5878 5877 5877 5876 5876 5876 5876 5875 5875 5875 5875 5874 5874 5874 5874 5873 5873
5877 5876 5876 5877 5877 5877 5878 5877 5877 5878 5878 5878 5878 5877 5877 5877 5877 5877 5877 5877 5877 5877 5877 5877 5877 5877 5877 5877 5877 5877 5877 5877 5877 5876 5876 5875 5875 5874 5874 5874 5873 5873 5873 5872 5872 5872 5871 5871 5871
5874 5876 5875 5875 5875 5876 5876 5876 5876 5876 5876 5876 5876 5876 5876 5876 5875 5875 5875 5875 5876 5876 5876 5876 5876 5876 5876 5876 5876 5876 5876 5876 5876 5875 5874 5874 5874 5873 5873 5872 5872 5871 5871 5870 5870 5870 5870 5869 5869
5873 5874 5873 5873 5874 5874 5874 5874 5875 5875 5875 5875 5875 5875 5875 5874 5874 5874 5874 5874 5874 5874 5874 5874 5874 5874 5874 5874 5874 5874 5874 5874 5874 5874 5873 5873 5872 5872 5871 5871 5870 5869 5869 5868 5868 5868 5868 5867 5867
5871 5871 5871 5872 5872 5872 5872 5872 5873 5873 5873 5873 5873 5873 5872 5872 5872 5872 5872 5872 5872 5872 5872 5872 5872 5873 5873 5873 5873 5873 5873 5873 5873 5873 5872 5872 5871 5871 5870 5869 5868 5868 5867 5867 5866 5866 5866 5866 5865
5868 5868 5869 5869 5869 5870 5870 5870 5870 5871 5871 5871 5871 5871 5870 5870 5870 5870 5870 5871 5871 5871 5871 5871 5871 5871 5872 5872 5872 5871 5872 5872 5872 5872 5871 5871 5870 5870 5869 5868 5867 5867 5866 5866 5865 5865 5865 5864 5863
5866 5866 5866 5866 5867 5867 5868 5868 5868 5868 5869 5869 5869 5869 5869 5869 5869 5868 5869 5869 5869 5869 5869 5869 5870 5870 5870 5870 5870 5870 5870 5871 5871 5871 5870 5870 5869 5869 5868 5867 5867 5866 5865 5865 5864 5864 5863 5863 5862
5863 5863 5864 5864 5864 5865 5865 5866 5866 5866 5866 5866 5866 5866 5866 5867 5867 5867 5867 5867 5867 5867 5867 5867 5868 5868 5869 5869 5869 5870 5870 5870 5870 5870 5869 5869 5869 5868 5867 5867 5866 5865 5865 5864 5863 5863 5862 5862 5861
5860 5861 5861 5861 5862 5862 5863 5863 5863 5863 5863 5863 5863 5864 5864 5864 5865 5865 5865 5865 5866 5866 5866 5866 5867 5867 5868 5868 5869 5869 5869 5869 5869 5869 5869 5868 5868 5868 5867 5866 5865 5865 5864 5864 5863 5862 5862 5861 5861
5858 5858 5859 5859 5859 5859 5860 5861 5860 5860 5860 5860 5860 5861 5861 5862 5862 5863 5863 5863 5864 5864 5865 5865 5865 5866 5867 5867 5868 5868 5868 5868 5868 5868 5868 5868 5868 5867 5866 5866 5865 5864 5864 5863 5863 5862 5861 5861 5860
5855 5856 5856 5857 5856 5856 5859 5858 5858 5857 5858 5858 5858 5858 5858 5859 5860 5860 5861 5861 5862 5862 5863 5864 5864 5865 5865 5866 5867 5867 5867 5868 5868 5868 5868 5868 5868 5867 5866 5865 5865 5864 5863 5863 5862 5862 5861 5860 5860
5852 5853 5853 5854 5853 5853 5854 5855 5855 5854 5855 5855 5855 5855 5856 5856 5857 5858 5858 5859 5860 5861 5861 5862 5863 5864 5865 5866 5866 5867 5867 5867 5868 5868 5868 5868 5867 5867 5866 5865 5864 5864 5863 5863 5862 5861 5861 5860 5860
5849 5850 5850 5850 5850 5850 5851 5851 5851 5851 5852 5852 5852 5852 5853 5853 5854 5855 5856 5857 5858 5859 5860 5861 5862 5863 5864 5865 5866 5866 5867 5867 5867 5868 5868 5868 5867 5867 5866 5865 5864 5864 5864 5863 5862 5861 5861 5860 5860
5846 5847 5847 5847 5847 5847 5848 5848 5848 5848 5848 5849 5849 5849 5850 5851 5851 5852 5853 5854 5856 5857 5858 5859 5861 5862 5863 5864 5865 5866 5866 5867 5867 5868 5868 5868 5867 5867 5866 5865 5865 5864 5864 5863 5862 5862 5861 5861 5860
5843 5843 5843 5844 5844 5844 5844 5845 5845 5845 5845 5846 5846 5846 5847 5848 5849 5849 5850 5852 5853 5855 5856 5858 5859 5860 5862 5863 5864 5865 5866 5867 5867 5868 5868 5868 5867 5867 5866 5865 5865 5864 5864 5863 5862 5862 5861 5861 5861
5840 5840 5840 5840 5840 5841 5842 5842 5842 5842 5842 5843 5843 5843 5844 5845 5846 5847 5848 5849 5851 5852 5854 5856 5857 5859 5861 5862 5863 5864 5865 5866 5867 5867 5868 5868 5867 5867 5866 5866 5865 5865 5864 5863 5863 5862 5862 5861 5861
5837 5837 5837 5837 5837 5838 5839 5839 5839 5839 5839 5839 5840 5840 5841 5842 5843 5844 5845 5847 5848 5850 5852 5854 5856 5858 5859 5861 5862 5863 5864 5866 5867 5867 5867 5867 5867 5867 5866 5866 5865 5865 5864 5864 5863 5863 5862 5862 5862
5833 5833 5834 5834 5834 5835 5835 5836 5837 5836 5836 5837 5837 5837 5838 5839 5840 5841 5842 5844 5846 5848 5850 5852 5854 5856 5858 5859 5861 5862 5864 5865 5866 5867 5867 5867 5867 5867 5866 5866 5866 5865 5865 5864 5864 5863 5863 5863 5863
5830 5830 5830 5830 5831 5832 5832 5832 5834 5833 5833 5834 5834 5834 5834 5835 5837 5838 5840 5842 5844 5845 5847 5850 5852 5854 5856 5858 5859 5861 5863 5864 5865 5866 5867 5867 5867 5867 5867 5866 5866 5866 5865 5865 5864 5864 5864 5863 5863
5827 5828 5828 5827 5828 5829 5829 5829 5831 5830 5830 5830 5830 5830 5831 5832 5833 5835 5837 5839 5841 5843 5845 5848 5850 5852 5854 5856 5858 5860 5862 5863 5864 5865 5866 5866 5867 5867 5867 5867 5866 5866 5865 5865 5865 5864 5864 5864 5864
5823 5825 5826 5825 5825 5826 5826 5826 5828 5828 5827 5827 5827 5828 5828 5829 5831 5832 5835 5836 5839 5841 5843 5845 5848 5850 5852 5854 5857 5859 5860 5862 5863 5864 5865 5866 5866 5867 5867 5867 5866 5866 5866 5865 5865 5865 5865 5864 5864
5820 5820 5822 5822 5822 5823 5823 5824 5825 5824 5824 5824 5825 5825 5826 5827 5828 5830 5832 5834 5836 5838 5841 5843 5845 5848 5850 5853 5855 5857 5859 5860 5862 5863 5864 5865 5866 5866 5866 5867 5866 5866 5866 5865 5865 5865 5865 5865 5865
5817 5818 5818 5819 5819 5820 5821 5821 5822 5821 5821 5822 5822 5822 5823 5824 5825 5827 5829 5831 5834 5836 5838 5841 5843 5846 5848 5851 5853 5855 5857 5859 5860 5862 5863 5864 5865 5866 5866 5866 5866 5866 5866 5866 5865 5865 5865 5865 5865
5814 5815 5815 5816 5816 5817 5818 5821 5819 5819 5818 5819 5819 5820 5820 5821 5823 5824 5826 5828 5831 5833 5836 5838 5841 5844 5846 5848 5851 5853 5855 5857 5859 5860 5862 5863 5864 5865 5866 5866 5866 5866 5866 5866 5866 5865 5865 5865 5864
5810 5811 5812 5813 5814 5814 5815 5819 5815 5816 5816 5816 5816 5817 5818 5819 5820 5821 5823 5826 5828 5831 5834 5836 5839 5841 5844 5846 5849 5851 5853 5855 5857 5859 5860 5862 5863 5864 5865 5865 5866 5866 5866 5866 5866 5865 5865 5865 5864
Wind_Speed
3 3 3 3 4 4 4 4 3 3 3 2 3 3 3 3 3 4 3 3 3 3 3 3 3 3 3 4 4 5 4 3 3 4 4 4 5 5 6 7 7 7 7 7 7 8 8 9 10
5 5 4 4 5 4 4 4 5 4 4 3 3 3 4 3 3 4 3 3 3 3 3 4 3 4 3 4 5 5 4 4 4 4 5 5 6 7 7 8 8 8 8 8 8 8 9 10 11
6 5 5 5 5 5 5 6 6 6 5 4 4 4 5 4 4 4 4 4 4 4 4 4 4 4 3 4 4 4 4 5 5 5 6 6 7 8 8 9 9 8 9 9 9 9 9 10 11
6 6 6 6 5 5 6 6 6 6 5 5 5 5 5 5 4 4 5 5 5 5 5 5 5 5 4 4 4 4 5 5 6 7 7 7 8 8 9 9 8 9 9 9 9 9 9 9 10
8 7 7 7 6 6 6 7 7 6 6 6 6 6 6 6 5 5 6 6 6 6 5 5 5 4 4 4 4 4 5 6 6 7 8 8 8 8 8 8 8 9 9 10 10 10 9 10 10
9 8 8 7 7 6 7 7 6 6 6 5 6 6 6 6 6 6 6 7 6 6 6 6 6 4 4 5 5 5 5 6 6 7 7 7 8 8 8 8 8 9 9 10 10 10 10 10 10
10 9 8 8 8 7 7 7 7 7 6 6 6 6 7 7 7 7 6 7 6 6 6 6 6 5 5 5 5 5 6 6 6 6 7 7 7 7 7 8 8 9 10 10 10 11 10 11 10
11 10 9 8 8 8 8 8 8 8 7 7 7 7 7 7 7 7 7 7 7 7 6 6 6 5 5 5 5 6 6 6 5 5 6 6 7 7 7 8 8 8 9 9 9 10 10 10 10
11 11 10 9 9 9 9 9 9 9 8 8 8 7 8 8 8 7 7 7 7 7 7 7 6 5 5 5 5 5 5 5 5 5 5 6 7 7 7 7 7 7 8 8 8 8 9 9 9
12 11 11 10 10 10 10 10 10 10 9 9 9 8 8 8 8 7 7 7 7 7 7 6 6 5 5 4 4 5 5 5 4 4 5 6 6 6 6 6 6 7 7 7 8 8 9 9 8
13 12 12 11 11 11 11 10 10 10 10 10 10 9 8 8 9 8 8 8 7 7 7 6 5 5 4 5 4 4 4 4 3 4 4 5 5 5 5 6 5 6 6 6 6 6 7 7 7
14 13 13 12 12 12 11 11 11 11 11 11 11 10 9 9 9 9 8 8 8 7 7 7 6 5 4 4 4 4 3 2 3 3 4 4 3 3 4 5 5 5 4 4 4 4 5 6 6
14 14 13 13 13 13 12 12 12 12 12 12 12 11 10 9 9 9 8 8 8 8 7 6 6 6 5 4 3 2 1 2 2 2 3 3 3 3 4 4 4 4 4 4 4 4 4 5 5
13 13 13 13 13 13 12 12 12 12 12 12 12 12 11 10 9 9 9 9 8 8 7 7 6 5 5 4 3 3 2 2 1 2 2 2 2 3 4 4 3 4 4 4 4 4 4 4 4
14 13 14 14 14 14 14 13 13 13 13 13 13 13 12 11 11 10 9 9 9 8 8 7 7 6 5 4 4 3 2 2 1 2 2 2 2 3 4 3 3 3 3 3 3 3 3 4 4
14 14 14 15 15 15 14 14 14 14 13 13 13 13 12 12 11 10 10 10 10 9 8 7 7 6 5 6 5 3 3 2 1 1 1 1 2 3 3 3 2 2 2 3 3 3 3 3 3
14 14 14 15 15 15 15 14 14 14 14 13 13 13 12 12 12 11 11 11 10 10 9 9 7 6 6 5 4 3 2 2 1 1 1 1 2 2 2 2 2 2 2 2 3 2 3 2 2
14 14 14 15 15 15 15 15 15 14 13 13 13 13 12 12 13 12 12 12 11 10 10 9 8 7 6 5 5 3 2 2 2 2 1 0 1 2 2 2 2 2 2 3 3 2 2 2 2
14 14 15 15 16 15 15 15 15 15 14 13 13 13 13 13 13 13 13 12 11 10 10 10 10 9 8 6 6 4 3 2 2 2 1 0 1 2 2 2 2 2 2 3 3 3 2 2 2
14 14 14 15 15 15 15 15 15 15 14 13 13 13 14 14 14 13 13 13 11 11 11 11 11 10 9 7 6 6 4 3 3 2 1 1 1 1 2 2 2 2 2 3 3 3 3 3 2
14 15 14 14 14 15 15 14 15 14 14 14 13 13 14 14 14 14 14 13 13 12 11 11 12 11 10 8 7 6 5 4 4 2 2 1 1 1 2 2 2 2 3 3 3 3 3 3 3
15 15 15 14 14 14 14 13 14 14 13 13 13 13 13 14 15 15 15 14 13 12 11 11 12 12 11 9 8 8 7 5 4 3 2 2 1 2 1 1 2 2 2 2 2 3 3 3 3
16 15 15 14 15 15 14 14 13 13 13 13 13 13 13 14 16 16 15 14 14 13 12 12 12 13 12 10 9 9 7 7 5 4 3 2 2 1 1 1 1 1 2 2 2 3 3 4 4
16 16 16 16 15 15 14 15 13 12 12 12 13 13 13 14 15 16 15 15 14 14 14 13 13 13 13 11 10 10 9 8 6 5 4 3 2 1 1 1 1 1 2 2 2 2 2 2 3
16 15 16 16 15 14 13 13 12 11 11 12 13 13 13 13 14 16 15 15 14 14 15 15 15 14 14 13 12 11 9 8 7 7 5 4 3 2 1 1 1 2 2 2 2 2 2 2 3
16 16 16 16 14 13 12 12 11 12 12 13 13 12 12 13 14 14 16 15 15 15 15 16 16 15 15 14 12 11 11 9 8 7 7 6 4 3 2 1 1 1 1 1 1 2 2 2 2
17 16 15 15 14 14 13 12 11 12 12 12 13 12 12 13 14 15 15 15 16 16 15 15 16 15 15 15 14 12 12 10 9 8 8 7 6 4 3 2 1 1 1 1 0 1 1 1 1
17 16 15 15 14 14 13 12 12 12 12 12 12 12 13 14 14 15 16 16 17 17 16 16 16 15 16 16 14 13 12 11 10 9 9 8 7 6 4 3 2 2 1 0 0 0 1 1 1
16 16 16 16 15 14 12 11 12 11 12 12 12 12 12 13 14 15 16 16 17 17 17 16 16 16 16 16 14 13 12 12 11 10 10 10 9 7 5 4 4 3 2 1 1 1 1 2 2
16 16 16 15 15 14 13 11 11 11 11 12 12 12 12 13 14 15 16 17 17 18 18 17 16 16 16 16 15 14 13 12 12 10 10 10 10 9 7 6 5 4 4 3 3 3 3 3 3
Wind_Direction
284 289 298 300 296 294 297 306 311 314 314 305 300 301 308 312 316 309 304 287 283 288 284 282 282 282 289 305 303 299 308 308 305 312 315 312 309 307 311 310 304 296 292 288 283 280 271 266 265
281 286 288 292 295 292 293 305 307 306 303 301 296 296 302 300 300 305 297 286 274 280 288 280 274 273 281 291 292 303 309 304 304 303 303 301 299 300 302 303 302 296 292 290 287 284 273 267 266
276 281 284 289 289 291 292 294 300 297 297 295 291 297 298 301 298 290 288 287 278 277 287 283 272 276 278 278 283 299 308 306 304 305 299 294 294 295 294 296 297 294 291 289 288 286 277 268 265
276 278 280 283 287 294 293 290 293 290 291 288 289 296 299 299 295 285 282 283 280 279 279 284 277 273 268 274 286 297 304 308 303 303 298 290 293 295 293 294 293 291 290 287 287 285 281 274 268
276 278 281 282 281 284 289 289 287 290 290 287 289 295 294 295 291 285 280 273 275 276 278 277 275 272 273 274 280 290 297 300 302 302 297 293 292 295 294 291 292 293 290 287 284 285 282 276 273
276 277 279 282 284 281 280 280 279 283 283 286 290 290 290 291 288 284 270 268 272 270 272 277 274 275 274 274 275 277 287 295 301 305 303 298 293 293 292 291 291 291 287 285 284 284 282 279 279
274 276 278 281 282 281 277 276 275 279 277 279 284 284 286 289 286 281 271 267 270 267 264 268 267 270 274 274 276 278 285 294 302 305 303 297 290 293 293 295 292 291 290 286 283 283 282 280 278
273 275 278 279 280 279 275 274 273 277 276 280 283 283 285 287 283 279 274 267 266 262 256 265 263 267 274 277 280 277 279 288 296 301 303 300 299 296 294 294 292 295 290 283 282 283 283 282 279
272 274 275 275 275 273 273 272 271 275 280 282 283 282 284 285 282 277 276 267 265 264 263 270 268 265 271 277 278 273 269 282 286 293 300 303 305 301 299 298 294 294 292 286 285 283 282 282 281
270 272 274 273 274 273 274 272 270 273 277 280 283 283 280 280 279 276 275 270 267 265 264 263 271 269 267 275 275 271 266 274 281 293 303 304 308 309 308 303 297 294 294 289 286 284 284 282 281
270 272 272 274 274 274 273 271 273 274 274 276 280 278 274 272 269 270 269 268 267 263 263 260 259 255 262 271 271 270 267 264 272 288 298 305 306 308 312 312 307 298 295 295 293 292 292 288 287
267 268 270 272 274 274 273 272 273 274 275 276 277 275 271 267 267 265 261 261 262 257 257 253 244 245 259 264 268 267 260 252 272 293 302 309 319 316 319 315 312 310 305 305 307 302 300 297 295
265 266 269 275 276 277 276 274 274 275 276 276 275 274 273 267 264 258 256 253 257 256 254 253 247 239 245 247 250 240 243 263 279 301 319 329 333 327 323 318 317 318 311 312 313 312 308 306 308
268 269 271 274 274 273 275 276 275 275 276 275 273 272 270 265 257 255 253 250 250 251 248 247 241 232 231 226 223 231 245 254 268 290 307 320 328 332 328 320 322 324 322 323 319 316 311 310 311
269 271 270 271 272 270 271 273 274 274 276 276 273 270 268 263 256 252 251 248 247 244 242 240 232 222 214 211 219 227 236 244 264 288 318 335 345 341 338 331 326 328 332 332 332 329 323 318 316
268 268 268 270 270 269 270 271 273 273 275 275 271 267 265 261 255 251 246 244 244 241 239 237 230 216 207 205 213 222 226 240 245 264 296 330 350 345 345 345 343 342 342 345 348 347 345 337 335
269 269 268 270 270 269 269 270 271 272 273 272 268 264 262 257 254 250 243 241 239 238 237 230 222 210 201 200 205 211 216 223 216 211 210 288 343 347 357 1 10 4 1 1 360 357 5 9 17
268 270 269 269 270 271 271 269 268 269 269 268 265 260 259 255 253 249 243 240 236 234 229 222 219 209 202 202 203 199 193 181 175 176 187 221 350 5 18 22 27 27 21 14 16 24 39 44 45
269 270 271 270 271 270 270 269 266 266 266 264 263 260 258 254 252 243 238 235 232 229 222 218 219 212 204 205 203 194 187 179 172 176 182 121 17 26 34 32 39 39 29 26 33 39 56 69 72
271 272 272 272 273 270 269 268 266 266 264 263 262 259 257 253 247 240 234 231 227 227 220 214 218 214 207 203 201 192 189 189 177 175 175 132 53 43 45 46 51 54 46 41 37 46 73 86 92
272 273 273 272 271 270 268 266 267 266 263 262 261 258 256 250 245 241 237 232 225 223 218 215 209 204 204 203 198 192 192 195 192 184 179 154 100 70 63 51 51 54 52 43 34 51 66 72 88
271 273 273 273 271 269 267 264 265 265 264 262 261 258 255 249 243 238 233 230 221 220 217 211 205 204 204 205 204 198 195 193 195 191 179 155 123 90 69 49 39 43 44 35 35 48 69 74 87
268 270 272 274 272 269 269 268 264 264 261 263 262 257 252 248 242 238 230 227 220 218 217 210 207 206 206 206 207 204 202 199 198 195 187 177 150 115 81 44 36 36 29 31 41 63 78 81 86
265 268 270 272 273 271 270 270 266 262 261 261 260 256 252 245 238 234 227 223 221 222 219 212 210 208 206 205 206 203 202 199 199 198 198 191 185 158 117 57 54 47 46 34 26 50 77 83 93
263 267 270 271 271 272 270 269 269 265 263 262 262 256 248 238 233 228 221 218 219 219 217 213 212 211 207 206 206 205 205 204 205 202 202 197 198 185 151 111 87 86 71 51 37 33 52 91 100
264 266 268 270 270 271 269 269 269 266 263 259 260 258 250 236 229 224 220 217 219 217 217 215 214 213 209 206 207 211 209 209 206 203 204 204 201 188 169 151 116 104 87 59 32 26 49 80 90
261 262 263 264 268 270 271 272 270 267 264 259 257 254 245 233 229 227 223 222 221 218 216 213 211 212 214 211 211 213 210 208 207 207 206 206 204 198 193 183 162 136 111 83 25 37 26 64 73
258 259 258 262 267 270 270 271 270 265 262 260 256 251 242 231 230 229 224 224 220 217 214 211 209 211 214 211 210 214 212 211 212 213 212 211 209 205 202 204 201 188 173 118 64 48 3 345 307
256 256 257 261 266 272 274 271 266 264 259 254 251 248 243 233 229 226 222 222 217 214 212 210 209 212 213 209 211 215 215 214 214 213 214 214 213 211 208 212 214 214 217 230 244 274 307 311 307
254 256 257 260 265 270 271 269 264 262 260 257 252 249 243 236 228 224 221 218 214 211 211 211 212 212 209 208 212 214 213 214 214 215 217 218 218 217 217 220 225 230 236 244 253 263 280 298 305